Retour au catalogue

SCOUT G-1 DEB

LostPO
NORAD 28674·DEBRIS·🇺🇸 United States

Lancé Aug 25, 1988 depuis Vandenberg Space Force Base

Loading…

Prochains Passages (prochaines 24 heures)

TLE

PériméSource: Space-Track

Époque: Dec 31, 2014, 17:34 UTC

1 28674U 88074K   14365.73238720  .00000230  00000-0  19579-3 0  9994
2 28674  89.8757 351.1535 0061115 104.1854  21.2319 13.83551164503310

Suivez SCOUT G-1 DEB en temps réel avec AllMySat

Download on the App Store